Time,TemperatureF,DewpointF,PressureIn,WindDirection,WindDirectionDegrees,WindSpeedMPH,WindSpeedGustMPH,Humidity,HourlyPrecipIn,Conditions,Clouds,dailyrainin,SoftwareType,DateUTC
2013-03-26 00:02:00,48.2,10.1,29.65,East,91,7.6,7.6,21,0.00,,---,0.00,VWS V14.01,2013-03-26 07:02:00,
2013-03-26 00:07:00,48.6,10.4,29.65,East,91,7.6,7.6,21,0.00,,---,0.00,VWS V14.01,2013-03-26 07:07:00,
2013-03-26 00:13:00,48.6,10.4,29.65,East,91,7.6,7.6,21,0.00,,---,0.00,VWS V14.01,2013-03-26 07:13:00,
2013-03-26 00:19:00,48.4,10.3,29.65,East,91,7.6,7.6,21,0.00,,---,0.00,VWS V14.01,2013-03-26 07:19:00,
2013-03-26 00:24:00,48.4,10.3,29.65,East,91,7.6,7.6,21,0.00,,---,0.00,VWS V14.01,2013-03-26 07:24:00,
2013-03-26 00:30:00,48.2,10.1,29.65,East,91,7.6,7.6,21,0.00,,---,0.00,VWS V14.01,2013-03-26 07:30:00,
2013-03-26 00:35:00,47.8,10.9,29.65,East,91,7.6,7.6,22,0.00,,---,0.00,VWS V14.01,2013-03-26 07:35:00,
2013-03-26 00:40:00,47.5,10.6,29.65,East,91,7.6,7.6,22,0.00,,---,0.00,VWS V14.01,2013-03-26 07:40:00,
2013-03-26 00:45:00,47.3,10.4,29.65,East,91,7.6,7.6,22,0.00,,---,0.00,VWS V14.01,2013-03-26 07:45:00,
2013-03-26 00:50:00,47.1,10.2,29.65,East,91,7.6,7.6,22,0.00,,---,0.00,VWS V14.01,2013-03-26 07:50:00,
2013-03-26 00:56:00,47.1,12.2,29.65,East,91,7.6,7.6,24,0.00,,---,0.00,VWS V14.01,2013-03-26 07:56:00,
2013-03-26 01:02:00,46.9,12.1,29.65,East,91,7.6,7.6,24,0.00,,---,0.00,VWS V14.01,2013-03-26 08:02:00,
2013-03-26 01:08:00,46.6,14.4,29.65,East,91,7.6,7.6,27,0.00,,---,0.00,VWS V14.01,2013-03-26 08:08:00,
2013-03-26 01:14:00,46.2,14.1,29.65,East,91,7.6,7.6,27,0.00,,---,0.00,VWS V14.01,2013-03-26 08:14:00,
2013-03-26 01:19:00,46.0,13.9,29.65,East,91,7.6,7.6,27,0.00,,---,0.00,VWS V14.01,2013-03-26 08:19:00,
2013-03-26 01:25:00,45.9,14.6,29.65,East,91,7.6,7.6,28,0.00,,---,0.00,VWS V14.01,2013-03-26 08:25:00,
2013-03-26 01:30:00,45.7,14.5,29.65,East,91,7.6,7.6,28,0.00,,---,0.00,VWS V14.01,2013-03-26 08:30:00,
2013-03-26 01:35:00,45.7,14.5,29.65,East,91,7.6,7.6,28,0.00,,---,0.00,VWS V14.01,2013-03-26 08:35:00,
2013-03-26 01:40:00,45.5,14.3,29.65,East,91,7.6,7.6,28,0.00,,---,0.00,VWS V14.01,2013-03-26 08:40:00,
2013-03-26 01:46:00,45.5,14.3,29.65,East,91,7.6,7.6,28,0.00,,---,0.00,VWS V14.01,2013-03-26 08:46:00,
2013-03-26 01:52:00,45.5,14.3,29.65,East,91,7.6,7.6,28,0.00,,---,0.00,VWS V14.01,2013-03-26 08:52:00,
2013-03-26 01:57:00,45.5,14.3,29.65,East,91,7.6,7.6,28,0.00,,---,0.00,VWS V14.01,2013-03-26 08:57:00,
2013-03-26 02:02:00,45.5,14.3,29.65,East,91,7.6,7.6,28,0.00,,---,0.00,VWS V14.01,2013-03-26 09:02:00,
2013-03-26 02:08:00,45.5,14.3,29.65,East,91,7.6,7.6,28,0.00,,---,0.00,VWS V14.01,2013-03-26 09:08:00,
2013-03-26 02:14:00,45.7,14.5,29.65,East,91,7.6,7.6,28,0.00,,---,0.00,VWS V14.01,2013-03-26 09:14:00,
2013-03-26 02:19:00,45.7,14.5,29.65,East,91,7.6,7.6,28,0.00,,---,0.00,VWS V14.01,2013-03-26 09:19:00,
2013-03-26 02:24:00,45.7,14.5,29.65,East,91,7.6,7.6,28,0.00,,---,0.00,VWS V14.01,2013-03-26 09:24:00,
2013-03-26 02:30:00,45.5,14.3,29.65,East,91,7.6,7.6,28,0.00,,---,0.00,VWS V14.01,2013-03-26 09:30:00,
2013-03-26 02:36:00,45.3,14.1,29.65,East,91,7.6,7.6,28,0.00,,---,0.00,VWS V14.01,2013-03-26 09:36:00,
2013-03-26 02:41:00,45.3,14.1,29.65,East,91,7.6,7.6,28,0.00,,---,0.00,VWS V14.01,2013-03-26 09:41:00,
2013-03-26 02:47:00,45.1,14.0,29.65,East,91,7.6,7.6,28,0.00,,---,0.00,VWS V14.01,2013-03-26 09:47:00,
2013-03-26 02:52:00,45.1,14.0,29.65,East,91,7.6,7.6,28,0.00,,---,0.00,VWS V14.01,2013-03-26 09:52:00,
2013-03-26 02:58:00,45.1,14.0,29.65,East,91,7.6,7.6,28,0.00,,---,0.00,VWS V14.01,2013-03-26 09:58:00,
2013-03-26 03:03:00,45.0,14.6,29.65,East,91,7.6,7.6,29,0.00,,---,0.00,VWS V14.01,2013-03-26 10:03:00,
2013-03-26 03:09:00,44.8,14.5,29.65,East,91,7.6,7.6,29,0.00,,---,0.00,VWS V14.01,2013-03-26 10:09:00,
2013-03-26 03:15:00,44.6,14.3,29.65,East,91,7.6,7.6,29,0.00,,---,0.00,VWS V14.01,2013-03-26 10:15:00,
2013-03-26 03:21:00,44.6,14.3,29.65,East,91,7.6,7.6,29,0.00,,---,0.00,VWS V14.01,2013-03-26 10:21:00,
2013-03-26 03:27:00,44.6,14.3,29.65,East,91,7.6,7.6,29,0.00,,---,0.00,VWS V14.01,2013-03-26 10:27:00,
2013-03-26 03:32:00,44.6,14.3,29.65,East,91,7.6,7.6,29,0.00,,---,0.00,VWS V14.01,2013-03-26 10:32:00,
2013-03-26 03:38:00,44.6,14.3,29.65,East,91,7.6,7.6,29,0.00,,---,0.00,VWS V14.01,2013-03-26 10:38:00,
2013-03-26 03:43:00,44.6,14.3,29.65,East,91,7.6,7.6,29,0.00,,---,0.00,VWS V14.01,2013-03-26 10:43:00,
2013-03-26 03:48:00,44.4,14.2,29.65,East,91,7.6,7.6,29,0.00,,---,0.00,VWS V14.01,2013-03-26 10:48:00,
2013-03-26 03:53:00,44.4,14.2,29.65,East,91,7.6,7.6,29,0.00,,---,0.00,VWS V14.01,2013-03-26 10:53:00,
2013-03-26 03:58:00,44.6,14.3,29.65,East,91,7.6,7.6,29,0.00,,---,0.00,VWS V14.01,2013-03-26 10:58:00,
2013-03-26 04:04:00,44.8,14.5,29.65,East,91,7.6,7.6,29,0.00,,---,0.00,VWS V14.01,2013-03-26 11:04:00,
2013-03-26 04:09:00,44.8,14.5,29.65,East,91,7.6,7.6,29,0.00,,---,0.00,VWS V14.01,2013-03-26 11:09:00,
2013-03-26 04:15:00,44.8,14.5,29.65,East,91,7.6,7.6,29,0.00,,---,0.00,VWS V14.01,2013-03-26 11:15:00,
2013-03-26 04:22:00,44.6,14.3,29.65,East,91,7.6,7.6,29,0.00,,---,0.00,VWS V14.01,2013-03-26 11:22:00,
2013-03-26 06:10:00,43.3,14.8,29.65,East,91,7.6,7.6,31,0.00,,---,0.00,VWS V14.01,2013-03-26 13:10:00,
2013-03-26 06:15:00,43.5,14.9,29.65,East,91,7.6,7.6,31,0.00,,---,0.00,VWS V14.01,2013-03-26 13:15:00,
2013-03-26 06:20:00,43.3,14.8,29.65,East,91,7.6,7.6,31,0.00,,---,0.00,VWS V14.01,2013-03-26 13:20:00,
2013-03-26 06:25:00,43.5,14.9,29.65,East,91,7.6,7.6,31,0.00,,---,0.00,VWS V14.01,2013-03-26 13:25:00,
2013-03-26 06:31:00,43.5,14.9,29.65,East,91,7.6,7.6,31,0.00,,---,0.00,VWS V14.01,2013-03-26 13:31:00,
2013-03-26 06:37:00,43.7,15.1,29.65,East,91,7.6,7.6,31,0.00,,---,0.00,VWS V14.01,2013-03-26 13:37:00,
2013-03-26 06:43:00,43.5,14.9,29.65,East,91,7.6,7.6,31,0.00,,---,0.00,VWS V14.01,2013-03-26 13:43:00,
2013-03-26 06:49:00,43.7,15.1,29.65,East,91,7.6,7.6,31,0.00,,---,0.00,VWS V14.01,2013-03-26 13:49:00,
2013-03-26 06:54:00,43.5,14.9,29.65,East,91,7.6,7.6,31,0.00,,---,0.00,VWS V14.01,2013-03-26 13:54:00,
2013-03-26 07:00:00,43.5,14.9,29.65,East,91,7.6,7.6,31,0.00,,---,0.00,VWS V14.01,2013-03-26 14:00:00,
2013-03-26 07:05:00,43.7,15.1,29.65,East,91,7.6,7.6,31,0.00,,---,0.00,VWS V14.01,2013-03-26 14:05:00,
2013-03-26 07:10:00,43.7,15.1,29.65,East,91,7.6,7.6,31,0.00,,---,0.00,VWS V14.01,2013-03-26 14:10:00,
2013-03-26 07:16:00,44.1,15.4,29.68,East,91,7.6,7.6,31,0.00,,---,0.00,VWS V14.01,2013-03-26 14:16:00,
2013-03-26 07:22:00,44.2,15.5,29.68,East,91,7.6,7.6,31,0.00,,---,0.00,VWS V14.01,2013-03-26 14:22:00,
2013-03-26 07:27:00,44.2,15.5,29.68,East,91,7.6,7.6,31,0.00,,---,0.00,VWS V14.01,2013-03-26 14:27:00,
2013-03-26 07:33:00,44.4,15.7,29.68,East,91,7.6,7.6,31,0.00,,---,0.00,VWS V14.01,2013-03-26 14:33:00,
2013-03-26 07:38:00,44.4,16.4,29.68,East,91,7.6,7.6,32,0.00,,---,0.00,VWS V14.01,2013-03-26 14:38:00,
2013-03-26 07:43:00,44.2,15.5,29.68,East,91,7.6,7.6,31,0.00,,---,0.00,VWS V14.01,2013-03-26 14:43:00,
2013-03-26 07:48:00,44.1,16.8,29.68,East,91,7.6,7.6,33,0.00,,---,0.00,VWS V14.01,2013-03-26 14:48:00,
2013-03-26 07:53:00,44.1,16.8,29.68,East,91,7.6,7.6,33,0.00,,---,0.00,VWS V14.01,2013-03-26 14:53:00,
2013-03-26 07:59:00,43.9,17.4,29.65,East,91,7.6,7.6,34,0.00,,---,0.00,VWS V14.01,2013-03-26 14:59:00,
2013-03-26 08:05:00,44.1,17.5,29.65,East,91,7.6,7.6,34,0.00,,---,0.00,VWS V14.01,2013-03-26 15:05:00,
2013-03-26 08:10:00,44.2,17.7,29.65,East,91,7.6,7.6,34,0.00,,---,0.00,VWS V14.01,2013-03-26 15:10:00,
2013-03-26 08:17:00,44.2,17.7,29.68,East,91,7.6,7.6,34,0.00,,---,0.00,VWS V14.01,2013-03-26 15:17:00,
2013-03-26 08:22:00,44.4,17.1,29.68,East,91,7.6,7.6,33,0.00,,---,0.00,VWS V14.01,2013-03-26 15:22:00,
2013-03-26 08:28:00,44.6,16.6,29.68,East,91,7.6,7.6,32,0.00,,---,0.00,VWS V14.01,2013-03-26 15:28:00,
2013-03-26 08:33:00,44.8,16.7,29.68,East,91,7.6,7.6,32,0.00,,---,0.00,VWS V14.01,2013-03-26 15:33:00,
2013-03-26 08:38:00,45.1,16.3,29.68,East,91,7.6,7.6,31,0.00,,---,0.00,VWS V14.01,2013-03-26 15:38:00,
2013-03-26 08:43:00,45.3,16.5,29.68,East,91,7.6,7.6,31,0.00,,---,0.00,VWS V14.01,2013-03-26 15:43:00,
2013-03-26 08:49:00,45.5,16.6,29.68,East,91,7.6,7.6,31,0.00,,---,0.00,VWS V14.01,2013-03-26 15:49:00,
2013-03-26 08:54:00,45.9,17.0,29.68,East,91,7.6,7.6,31,0.00,,---,0.00,VWS V14.01,2013-03-26 15:54:00,
2013-03-26 08:59:00,46.2,17.3,29.68,East,91,7.6,7.6,31,0.00,,---,0.00,VWS V14.01,2013-03-26 15:59:00,
2013-03-26 09:04:00,46.4,16.7,29.68,East,91,7.6,7.6,30,0.00,,---,0.00,VWS V14.01,2013-03-26 16:04:00,
2013-03-26 09:09:00,46.8,17.0,29.68,East,91,7.6,7.6,30,0.00,,---,0.00,VWS V14.01,2013-03-26 16:09:00,
2013-03-26 09:15:00,47.1,17.3,29.68,East,91,7.6,7.6,30,0.00,,---,0.00,VWS V14.01,2013-03-26 16:15:00,
2013-03-26 09:22:00,47.5,17.6,29.68,East,91,7.6,7.6,30,0.00,,---,0.00,VWS V14.01,2013-03-26 16:22:00,
2013-03-26 09:28:00,48.0,18.1,29.68,East,91,7.6,7.6,30,0.00,,---,0.00,VWS V14.01,2013-03-26 16:28:00,
2013-03-26 09:33:00,48.2,17.5,29.68,East,91,7.6,7.6,29,0.00,,---,0.00,VWS V14.01,2013-03-26 16:33:00,
2013-03-26 09:39:00,48.6,17.8,29.68,East,91,7.6,7.6,29,0.00,,---,0.00,VWS V14.01,2013-03-26 16:39:00,
2013-03-26 09:44:00,48.7,17.9,29.68,East,91,7.6,7.6,29,0.00,,---,0.00,VWS V14.01,2013-03-26 16:44:00,
2013-03-26 09:49:00,49.1,18.2,29.68,East,91,7.6,7.6,29,0.00,,---,0.00,VWS V14.01,2013-03-26 16:49:00,
2013-03-26 09:54:00,49.6,17.9,29.68,East,91,7.6,7.6,28,0.00,,---,0.00,VWS V14.01,2013-03-26 16:54:00,
2013-03-26 10:00:00,49.8,18.0,29.68,East,91,7.6,7.6,28,0.00,,---,0.00,VWS V14.01,2013-03-26 17:00:00,
2013-03-26 10:06:00,50.2,18.4,29.68,East,91,7.6,7.6,28,0.00,,---,0.00,VWS V14.01,2013-03-26 17:06:00,
2013-03-26 10:11:00,50.4,18.5,29.68,East,91,7.6,7.6,28,0.00,,---,0.00,VWS V14.01,2013-03-26 17:11:00,
2013-03-26 10:16:00,50.4,18.5,29.68,East,91,7.6,7.6,28,0.00,,---,0.00,VWS V14.01,2013-03-26 17:16:00,
2013-03-26 10:21:00,50.7,18.8,29.68,East,91,7.6,7.6,28,0.00,,---,0.00,VWS V14.01,2013-03-26 17:21:00,
2013-03-26 10:27:00,51.1,18.3,29.68,East,91,7.6,7.6,27,0.00,,---,0.00,VWS V14.01,2013-03-26 17:27:00,
2013-03-26 10:32:00,51.6,18.8,29.68,East,91,7.6,7.6,27,0.00,,---,0.00,VWS V14.01,2013-03-26 17:32:00,
2013-03-26 10:38:00,52.5,19.5,29.68,East,91,7.6,7.6,27,0.00,,---,0.00,VWS V14.01,2013-03-26 17:38:00,
2013-03-26 10:44:00,53.8,19.7,29.68,East,91,7.6,7.6,26,0.00,,---,0.00,VWS V14.01,2013-03-26 17:44:00,
2013-03-26 10:49:00,54.3,20.2,29.68,East,91,7.6,7.6,26,0.00,,---,0.00,VWS V14.01,2013-03-26 17:49:00,
2013-03-26 10:55:00,53.8,19.7,29.68,East,91,7.6,7.6,26,0.00,,---,0.00,VWS V14.01,2013-03-26 17:55:00,
2013-03-26 11:00:00,53.6,19.6,29.68,East,91,7.6,7.6,26,0.00,,---,0.00,VWS V14.01,2013-03-26 18:00:00,
2013-03-26 11:05:00,53.2,20.1,29.68,East,91,7.6,7.6,27,0.00,,---,0.00,VWS V14.01,2013-03-26 18:05:00,
2013-03-26 11:12:00,54.0,19.9,29.68,East,91,7.6,7.6,26,0.00,,---,0.00,VWS V14.01,2013-03-26 18:12:00,
2013-03-26 11:17:00,54.0,19.9,29.68,East,91,7.6,7.6,26,0.00,,---,0.00,VWS V14.01,2013-03-26 18:17:00,
2013-03-26 11:22:00,53.8,19.7,29.68,East,91,7.6,7.6,26,0.00,,---,0.00,VWS V14.01,2013-03-26 18:22:00,
2013-03-26 11:28:00,53.4,19.4,29.68,East,91,7.6,7.6,26,0.00,,---,0.00,VWS V14.01,2013-03-26 18:28:00,
2013-03-26 11:33:00,52.9,19.0,29.68,East,91,7.6,7.6,26,0.00,,---,0.00,VWS V14.01,2013-03-26 18:33:00,
2013-03-26 11:38:00,52.9,19.8,29.68,East,91,7.6,7.6,27,0.00,,---,0.00,VWS V14.01,2013-03-26 18:38:00,
2013-03-26 11:43:00,53.6,19.6,29.68,East,91,7.6,7.6,26,0.00,,---,0.00,VWS V14.01,2013-03-26 18:43:00,
2013-03-26 11:48:00,54.0,19.9,29.71,East,91,7.6,7.6,26,0.00,,---,0.00,VWS V14.01,2013-03-26 18:48:00,
2013-03-26 11:54:00,55.2,21.0,29.71,East,91,7.6,7.6,26,0.00,,---,0.00,VWS V14.01,2013-03-26 18:54:00,
2013-03-26 12:00:00,55.4,20.2,29.68,East,91,7.6,7.6,25,0.00,,---,0.00,VWS V14.01,2013-03-26 19:00:00,
2013-03-26 12:06:00,56.1,20.8,29.68,East,91,7.6,7.6,25,0.00,,---,0.00,VWS V14.01,2013-03-26 19:06:00,
2013-03-26 12:12:00,55.9,20.6,29.68,East,91,7.6,7.6,25,0.00,,---,0.00,VWS V14.01,2013-03-26 19:12:00,
2013-03-26 12:17:00,56.1,20.8,29.68,East,91,7.6,7.6,25,0.00,,---,0.00,VWS V14.01,2013-03-26 19:17:00,
2013-03-26 12:23:00,56.1,20.8,29.68,East,91,7.6,7.6,25,0.00,,---,0.00,VWS V14.01,2013-03-26 19:23:00,
2013-03-26 12:28:00,56.3,21.0,29.68,East,91,7.6,7.6,25,0.00,,---,0.00,VWS V14.01,2013-03-26 19:28:00,
2013-03-26 12:33:00,56.8,21.4,29.68,East,91,7.6,7.6,25,0.00,,---,0.00,VWS V14.01,2013-03-26 19:33:00,
2013-03-26 12:38:00,57.6,19.0,29.68,East,91,7.6,7.6,22,0.00,,---,0.00,VWS V14.01,2013-03-26 19:38:00,
2013-03-26 12:44:00,57.7,19.2,29.68,East,91,7.6,7.6,22,0.00,,---,0.00,VWS V14.01,2013-03-26 19:44:00,
2013-03-26 12:50:00,57.4,18.9,29.68,East,91,7.6,7.6,22,0.00,,---,0.00,VWS V14.01,2013-03-26 19:50:00,
2013-03-26 12:55:00,57.6,19.0,29.68,East,91,7.6,7.6,22,0.00,,---,0.00,VWS V14.01,2013-03-26 19:55:00,
2013-03-26 13:00:00,58.3,19.6,29.68,East,91,7.6,7.6,22,0.00,,---,0.00,VWS V14.01,2013-03-26 20:00:00,
2013-03-26 13:06:00,59.0,16.8,29.68,East,91,7.6,7.6,19,0.00,,---,0.00,VWS V14.01,2013-03-26 20:06:00,
2013-03-26 13:12:00,59.2,17.0,29.68,East,91,7.6,7.6,19,0.00,,---,0.00,VWS V14.01,2013-03-26 20:12:00,
2013-03-26 13:17:00,59.5,17.3,29.68,East,91,7.6,7.6,19,0.00,,---,0.00,VWS V14.01,2013-03-26 20:17:00,
2013-03-26 13:23:00,59.2,17.0,29.68,East,91,7.6,7.6,19,0.00,,---,0.00,VWS V14.01,2013-03-26 20:23:00,
2013-03-26 13:28:00,59.2,17.0,29.68,East,91,7.6,7.6,19,0.00,,---,0.00,VWS V14.01,2013-03-26 20:28:00,
2013-03-26 13:34:00,59.4,17.1,29.68,East,91,7.6,7.6,19,0.00,,---,0.00,VWS V14.01,2013-03-26 20:34:00,
2013-03-26 13:39:00,59.2,17.0,29.68,East,91,7.6,7.6,19,0.00,,---,0.00,VWS V14.01,2013-03-26 20:39:00,
2013-03-26 13:44:00,59.2,17.0,29.68,East,91,7.6,7.6,19,0.00,,---,0.00,VWS V14.01,2013-03-26 20:44:00,
2013-03-26 13:49:00,59.0,16.8,29.68,East,91,7.6,7.6,19,0.00,,---,0.00,VWS V14.01,2013-03-26 20:49:00,
2013-03-26 13:55:00,59.4,17.1,29.68,East,91,7.6,7.6,19,0.00,,---,0.00,VWS V14.01,2013-03-26 20:55:00,
2013-03-26 14:00:00,60.4,18.0,29.68,East,91,7.6,7.6,19,0.00,,---,0.00,VWS V14.01,2013-03-26 21:00:00,
2013-03-26 14:06:00,60.4,18.0,29.68,East,91,7.6,7.6,19,0.00,,---,0.00,VWS V14.01,2013-03-26 21:06:00,
2013-03-26 14:11:00,59.7,17.4,29.68,East,91,7.6,7.6,19,0.00,,---,0.00,VWS V14.01,2013-03-26 21:11:00,
2013-03-26 14:16:00,59.7,17.4,29.68,East,91,7.6,7.6,19,0.00,,---,0.00,VWS V14.01,2013-03-26 21:16:00,
2013-03-26 14:22:00,59.7,17.4,29.68,East,91,7.6,7.6,19,0.00,,---,0.00,VWS V14.01,2013-03-26 21:22:00,
2013-03-26 14:28:00,59.7,17.4,29.68,East,91,7.6,7.6,19,0.00,,---,0.00,VWS V14.01,2013-03-26 21:28:00,
2013-03-26 14:34:00,59.2,17.0,29.68,East,91,7.6,7.6,19,0.00,,---,0.00,VWS V14.01,2013-03-26 21:34:00,
2013-03-26 14:40:00,59.4,17.1,29.68,East,91,7.6,7.6,19,0.00,,---,0.00,VWS V14.01,2013-03-26 21:40:00,
2013-03-26 14:47:00,60.3,17.9,29.65,East,91,7.6,7.6,19,0.00,,---,0.00,VWS V14.01,2013-03-26 21:47:00,
2013-03-26 14:53:00,60.4,18.0,29.65,East,91,7.6,7.6,19,0.00,,---,0.00,VWS V14.01,2013-03-26 21:53:00,
2013-03-26 14:58:00,60.6,18.2,29.65,East,91,7.6,7.6,19,0.00,,---,0.00,VWS V14.01,2013-03-26 21:58:00,
2013-03-26 15:04:00,61.2,18.6,29.65,East,91,7.6,7.6,19,0.00,,---,0.00,VWS V14.01,2013-03-26 22:04:00,
2013-03-26 15:10:00,61.5,18.9,29.65,East,91,7.6,7.6,19,0.00,,---,0.00,VWS V14.01,2013-03-26 22:10:00,
2013-03-26 15:15:00,61.5,18.9,29.65,East,91,7.6,7.6,19,0.00,,---,0.00,VWS V14.01,2013-03-26 22:15:00,
2013-03-26 15:20:00,60.8,18.3,29.65,East,91,7.6,7.6,19,0.00,,---,0.00,VWS V14.01,2013-03-26 22:20:00,
2013-03-26 15:27:00,61.2,18.6,29.65,East,91,7.6,7.6,19,0.00,,---,0.00,VWS V14.01,2013-03-26 22:27:00,
2013-03-26 15:33:00,61.3,18.8,29.65,East,91,7.6,7.6,19,0.00,,---,0.00,VWS V14.01,2013-03-26 22:33:00,
2013-03-26 15:38:00,61.7,19.0,29.65,East,91,7.6,7.6,19,0.00,,---,0.00,VWS V14.01,2013-03-26 22:38:00,
2013-03-26 15:43:00,61.7,19.0,29.65,East,91,7.6,7.6,19,0.00,,---,0.00,VWS V14.01,2013-03-26 22:43:00,
2013-03-26 15:49:00,61.9,19.2,29.65,East,91,7.6,7.6,19,0.00,,---,0.00,VWS V14.01,2013-03-26 22:49:00,
2013-03-26 15:55:00,62.4,19.6,29.65,East,91,7.6,7.6,19,0.00,,---,0.00,VWS V14.01,2013-03-26 22:55:00,
2013-03-26 16:00:00,63.0,18.8,29.65,East,91,7.6,7.6,18,0.00,,---,0.00,VWS V14.01,2013-03-26 23:00:00,
2013-03-26 16:06:00,62.2,19.5,29.65,East,91,7.6,7.6,19,0.00,,---,0.00,VWS V14.01,2013-03-26 23:06:00,
2013-03-26 16:12:00,62.4,19.6,29.65,East,91,7.6,7.6,19,0.00,,---,0.00,VWS V14.01,2013-03-26 23:12:00,
2013-03-26 16:18:00,62.2,19.5,29.65,East,91,7.6,7.6,19,0.00,,---,0.00,VWS V14.01,2013-03-26 23:18:00,
2013-03-26 16:23:00,62.2,19.5,29.65,East,91,7.6,7.6,19,0.00,,---,0.00,VWS V14.01,2013-03-26 23:23:00,
2013-03-26 16:28:00,62.2,19.5,29.65,East,91,7.6,7.6,19,0.00,,---,0.00,VWS V14.01,2013-03-26 23:28:00,
2013-03-26 16:33:00,62.8,18.7,29.65,East,91,7.6,7.6,18,0.00,,---,0.00,VWS V14.01,2013-03-26 23:33:00,
2013-03-26 16:39:00,62.2,19.5,29.65,East,91,7.6,7.6,19,0.00,,---,0.00,VWS V14.01,2013-03-26 23:39:00,
2013-03-26 16:45:00,62.6,18.5,29.65,East,91,7.6,7.6,18,0.00,,---,0.00,VWS V14.01,2013-03-26 23:45:00,
2013-03-26 16:50:00,62.2,19.5,29.65,East,91,7.6,7.6,19,0.00,,---,0.00,VWS V14.01,2013-03-26 23:50:00,
2013-03-26 16:55:00,61.9,19.2,29.65,East,91,7.6,7.6,19,0.00,,---,0.00,VWS V14.01,2013-03-26 23:55:00,
2013-03-26 17:01:00,61.0,18.5,29.65,East,91,7.6,7.6,19,0.00,,---,0.00,VWS V14.01,2013-03-27 00:01:00,
2013-03-26 17:07:00,61.2,18.6,29.65,East,91,7.6,7.6,19,0.00,,---,0.00,VWS V14.01,2013-03-27 00:07:00,
2013-03-26 17:13:00,61.2,18.6,29.65,East,91,7.6,7.6,19,0.00,,---,0.00,VWS V14.01,2013-03-27 00:13:00,
2013-03-26 17:19:00,61.0,18.5,29.62,East,91,7.6,7.6,19,0.00,,---,0.00,VWS V14.01,2013-03-27 00:19:00,
2013-03-26 17:25:00,60.8,18.3,29.62,East,91,7.6,7.6,19,0.00,,---,0.00,VWS V14.01,2013-03-27 00:25:00,
2013-03-26 17:30:00,60.8,18.3,29.65,East,91,7.6,7.6,19,0.00,,---,0.00,VWS V14.01,2013-03-27 00:30:00,
2013-03-26 17:35:00,60.3,17.9,29.65,East,91,7.6,7.6,19,0.00,,---,0.00,VWS V14.01,2013-03-27 00:35:00,
2013-03-26 17:41:00,59.5,17.3,29.65,East,91,7.6,7.6,19,0.00,,---,0.00,VWS V14.01,2013-03-27 00:41:00,
2013-03-26 17:46:00,59.2,17.0,29.65,East,91,7.6,7.6,19,0.00,,---,0.00,VWS V14.01,2013-03-27 00:46:00,
2013-03-26 17:51:00,59.0,16.8,29.65,East,91,7.6,7.6,19,0.00,,---,0.00,VWS V14.01,2013-03-27 00:51:00,
2013-03-26 17:57:00,58.6,16.5,29.65,East,91,7.6,7.6,19,0.00,,---,0.00,VWS V14.01,2013-03-27 00:57:00,
2013-03-26 18:03:00,58.1,16.1,29.62,East,91,7.6,7.6,19,0.00,,---,0.00,VWS V14.01,2013-03-27 01:03:00,
2013-03-26 18:08:00,57.6,15.6,29.62,East,91,7.6,7.6,19,0.00,,---,0.00,VWS V14.01,2013-03-27 01:08:00,
2013-03-26 18:14:00,57.0,16.4,29.65,East,91,7.6,7.6,20,0.00,,---,0.00,VWS V14.01,2013-03-27 01:14:00,
2013-03-26 18:20:00,56.7,16.1,29.65,East,91,7.6,7.6,20,0.00,,---,0.00,VWS V14.01,2013-03-27 01:20:00,
2013-03-26 18:25:00,56.7,16.1,29.65,East,91,7.6,7.6,20,0.00,,---,0.00,VWS V14.01,2013-03-27 01:25:00,
2013-03-26 18:31:00,56.5,15.9,29.65,East,91,7.6,7.6,20,0.00,,---,0.00,VWS V14.01,2013-03-27 01:31:00,
2013-03-26 18:37:00,56.1,15.6,29.65,East,91,7.6,7.6,20,0.00,,---,0.00,VWS V14.01,2013-03-27 01:37:00,
2013-03-26 18:43:00,55.9,15.5,29.65,East,91,7.6,7.6,20,0.00,,---,0.00,VWS V14.01,2013-03-27 01:43:00,
2013-03-26 18:48:00,55.8,15.3,29.65,East,91,7.6,7.6,20,0.00,,---,0.00,VWS V14.01,2013-03-27 01:48:00,
2013-03-26 18:53:00,55.6,15.2,29.65,East,91,7.6,7.6,20,0.00,,---,0.00,VWS V14.01,2013-03-27 01:53:00,
2013-03-26 18:59:00,55.4,15.0,29.65,East,91,7.6,7.6,20,0.00,,---,0.00,VWS V14.01,2013-03-27 01:59:00,
2013-03-26 19:04:00,55.2,14.9,29.65,East,91,7.6,7.6,20,0.00,,---,0.00,VWS V14.01,2013-03-27 02:04:00,
2013-03-26 19:10:00,55.0,14.7,29.65,East,91,7.6,7.6,20,0.00,,---,0.00,VWS V14.01,2013-03-27 02:10:00,
2013-03-26 19:15:00,54.9,14.6,29.65,East,91,7.6,7.6,20,0.00,,---,0.00,VWS V14.01,2013-03-27 02:15:00,
2013-03-26 19:22:00,54.5,14.3,29.65,East,91,7.6,7.6,20,0.00,,---,0.00,VWS V14.01,2013-03-27 02:22:00,
2013-03-26 19:28:00,54.3,14.1,29.65,East,91,7.6,7.6,20,0.00,,---,0.00,VWS V14.01,2013-03-27 02:28:00,
2013-03-26 19:33:00,54.0,13.8,29.65,East,91,7.6,7.6,20,0.00,,---,0.00,VWS V14.01,2013-03-27 02:33:00,
2013-03-26 19:38:00,53.6,16.7,29.65,East,91,7.6,7.6,23,0.00,,---,0.00,VWS V14.01,2013-03-27 02:38:00,
2013-03-26 19:44:00,53.2,16.4,29.65,East,91,7.6,7.6,23,0.00,,---,0.00,VWS V14.01,2013-03-27 02:44:00,
2013-03-26 19:50:00,52.9,16.1,29.65,East,91,7.6,7.6,23,0.00,,---,0.00,VWS V14.01,2013-03-27 02:50:00,
2013-03-26 19:55:00,52.7,16.0,29.65,East,91,7.6,7.6,23,0.00,,---,0.00,VWS V14.01,2013-03-27 02:55:00,
2013-03-26 20:01:00,52.5,18.6,29.65,East,91,7.6,7.6,26,0.00,,---,0.00,VWS V14.01,2013-03-27 03:01:00,
2013-03-26 20:07:00,52.5,18.6,29.65,East,91,7.6,7.6,26,0.00,,---,0.00,VWS V14.01,2013-03-27 03:07:00,
2013-03-26 20:13:00,52.3,18.5,29.65,East,91,7.6,7.6,26,0.00,,---,0.00,VWS V14.01,2013-03-27 03:13:00,
2013-03-26 20:18:00,52.0,18.2,29.65,East,91,7.6,7.6,26,0.00,,---,0.00,VWS V14.01,2013-03-27 03:18:00,
2013-03-26 20:23:00,51.8,18.0,29.65,East,91,7.6,7.6,26,0.00,,---,0.00,VWS V14.01,2013-03-27 03:23:00,
2013-03-26 20:28:00,51.6,17.9,29.65,East,91,7.6,7.6,26,0.00,,---,0.00,VWS V14.01,2013-03-27 03:28:00,
2013-03-26 20:34:00,51.3,18.4,29.65,East,91,7.6,7.6,27,0.00,,---,0.00,VWS V14.01,2013-03-27 03:34:00,
2013-03-26 20:40:00,51.3,18.4,29.65,East,91,7.6,7.6,27,0.00,,---,0.00,VWS V14.01,2013-03-27 03:40:00,
2013-03-26 20:45:00,51.3,18.4,29.65,East,91,7.6,7.6,27,0.00,,---,0.00,VWS V14.01,2013-03-27 03:45:00,
2013-03-26 20:50:00,50.9,18.1,29.65,East,91,7.6,7.6,27,0.00,,---,0.00,VWS V14.01,2013-03-27 03:50:00,
2013-03-26 20:56:00,50.9,18.1,29.65,East,91,7.6,7.6,27,0.00,,---,0.00,VWS V14.01,2013-03-27 03:56:00,
2013-03-26 21:00:00,50.7,18.0,29.65,East,91,7.6,7.6,27,0.00,,---,0.00,VWS V14.01,2013-03-27 04:00:00,
2013-03-26 21:02:00,50.7,18.0,29.65,East,91,7.6,7.6,27,0.00,,---,0.00,VWS V14.01,2013-03-27 04:02:00,
2013-03-26 21:03:00,50.7,18.0,29.65,East,91,7.6,7.6,27,0.00,,---,0.00,VWS V14.01,2013-03-27 04:03:00,
2013-03-26 21:08:00,50.7,18.0,29.65,East,91,7.6,7.6,27,0.00,,---,0.00,VWS V14.01,2013-03-27 04:08:00,
2013-03-26 21:13:00,50.7,18.0,29.65,East,91,7.6,7.6,27,0.00,,---,0.00,VWS V14.01,2013-03-27 04:13:00,
2013-03-26 21:15:00,50.7,18.0,29.65,East,91,7.6,7.6,27,0.00,,---,0.00,VWS V14.01,2013-03-27 04:15:00,
2013-03-26 21:21:00,50.9,17.2,29.65,East,91,7.6,7.6,26,0.00,,---,0.00,VWS V14.01,2013-03-27 04:21:00,
2013-03-26 21:27:00,50.7,17.1,29.65,East,91,7.6,7.6,26,0.00,,---,0.00,VWS V14.01,2013-03-27 04:27:00,
2013-03-26 21:32:00,50.7,17.1,29.65,East,91,7.6,7.6,26,0.00,,---,0.00,VWS V14.01,2013-03-27 04:32:00,
2013-03-26 21:37:00,50.5,17.0,29.65,East,91,7.6,7.6,26,0.00,,---,0.00,VWS V14.01,2013-03-27 04:37:00,
2013-03-26 21:43:00,50.4,16.8,29.65,East,91,7.6,7.6,26,0.00,,---,0.00,VWS V14.01,2013-03-27 04:43:00,
2013-03-26 21:49:00,50.2,16.6,29.65,East,91,7.6,7.6,26,0.00,,---,0.00,VWS V14.01,2013-03-27 04:49:00,
2013-03-26 21:54:00,50.0,16.5,29.65,East,91,7.6,7.6,26,0.00,,---,0.00,VWS V14.01,2013-03-27 04:54:00,
2013-03-26 21:59:00,50.0,16.5,29.65,East,91,7.6,7.6,26,0.00,,---,0.00,VWS V14.01,2013-03-27 04:59:00,
2013-03-26 22:05:00,50.0,16.5,29.65,East,91,7.6,7.6,26,0.00,,---,0.00,VWS V14.01,2013-03-27 05:05:00,
2013-03-26 22:10:00,49.8,16.3,29.65,East,91,7.6,7.6,26,0.00,,---,0.00,VWS V14.01,2013-03-27 05:10:00,
2013-03-26 22:16:00,49.5,16.0,29.65,East,91,7.6,7.6,26,0.00,,---,0.00,VWS V14.01,2013-03-27 05:16:00,
2013-03-26 22:22:00,49.1,15.7,29.65,East,91,7.6,7.6,26,0.00,,---,0.00,VWS V14.01,2013-03-27 05:22:00,
2013-03-26 22:27:00,48.6,15.2,29.65,East,91,7.6,7.6,26,0.00,,---,0.00,VWS V14.01,2013-03-27 05:27:00,
2013-03-26 22:33:00,48.4,15.1,29.65,East,91,7.6,7.6,26,0.00,,---,0.00,VWS V14.01,2013-03-27 05:33:00,
2013-03-26 22:38:00,48.6,16.1,29.65,East,91,7.6,7.6,27,0.00,,---,0.00,VWS V14.01,2013-03-27 05:38:00,
2013-03-26 22:43:00,48.6,16.1,29.65,East,91,7.6,7.6,27,0.00,,---,0.00,VWS V14.01,2013-03-27 05:43:00,
2013-03-26 22:48:00,48.6,16.1,29.65,East,91,7.6,7.6,27,0.00,,---,0.00,VWS V14.01,2013-03-27 05:48:00,
2013-03-26 22:54:00,48.7,16.3,29.65,East,91,7.6,7.6,27,0.00,,---,0.00,VWS V14.01,2013-03-27 05:54:00,
2013-03-26 22:59:00,48.6,16.1,29.65,East,91,7.6,7.6,27,0.00,,---,0.00,VWS V14.01,2013-03-27 05:59:00,
2013-03-26 23:05:00,48.2,15.8,29.65,East,91,7.6,7.6,27,0.00,,---,0.00,VWS V14.01,2013-03-27 06:05:00,
2013-03-26 23:10:00,47.8,15.5,29.65,East,91,7.6,7.6,27,0.00,,---,0.00,VWS V14.01,2013-03-27 06:10:00,
2013-03-26 23:16:00,47.7,16.2,29.65,East,91,7.6,7.6,28,0.00,,---,0.00,VWS V14.01,2013-03-27 06:16:00,
2013-03-26 23:21:00,47.7,16.2,29.65,East,91,7.6,7.6,28,0.00,,---,0.00,VWS V14.01,2013-03-27 06:21:00,
2013-03-26 23:26:00,47.7,16.2,29.65,East,91,7.6,7.6,28,0.00,,---,0.00,VWS V14.01,2013-03-27 06:26:00,
2013-03-26 23:31:00,47.7,16.2,29.65,East,91,7.6,7.6,28,0.00,,---,0.00,VWS V14.01,2013-03-27 06:31:00,
2013-03-26 23:36:00,47.5,16.0,29.65,East,91,7.6,7.6,28,0.00,,---,0.00,VWS V14.01,2013-03-27 06:36:00,
2013-03-26 23:42:00,47.7,16.2,29.65,East,91,7.6,7.6,28,0.00,,---,0.00,VWS V14.01,2013-03-27 06:42:00,
2013-03-26 23:47:00,47.8,16.3,29.65,East,91,7.6,7.6,28,0.00,,---,0.00,VWS V14.01,2013-03-27 06:47:00,
2013-03-26 23:52:00,48.0,16.5,29.65,East,91,7.6,7.6,28,0.00,,---,0.00,VWS V14.01,2013-03-27 06:52:00,
2013-03-26 23:57:00,48.0,15.6,29.65,East,91,7.6,7.6,27,0.00,,---,0.00,VWS V14.01,2013-03-27 06:57:00,